Location: Brown Observing Site
(43.4354°N, 116.3366°W)
Time: 17:44:49
(UTC-06:00)

Envisat - Visible Passes

Search period start: 21 March 2019 00:00
Search period end: 31 March 2019 00:00
Orbit: 764 x 766 km, 98.2° (Epoch: 21 March)

Date Brightness Start Highest point End Pass type
(mag) Time Alt. Az. Time Alt. Az. Time Alt. Az.
21 Mar 5.8 21:38:34 10° SW 21:41:55 17° W 21:45:16 10° NW visible
22 Mar 4.6 21:00:10 10° SSW 21:04:51 37° W 21:09:34 10° NNW visible
23 Mar 3.2 20:22:55 10° SSE 20:28:00 82° WSW 20:33:07 10° NNW visible
24 Mar 5.5 21:26:42 10° SW 21:30:35 22° W 21:34:30 10° NW visible
25 Mar 4.2 20:48:43 10° S 20:53:35 47° W 20:58:30 10° NNW visible
26 Mar 6.0 21:54:19 10° WSW 21:56:24 12° W 21:58:31 10° WNW visible
27 Mar 5.2 21:14:59 10° SSW 21:19:16 27° W 21:23:35 10° NW visible
28 Mar 3.7 20:37:20 10° S 20:42:20 60° W 20:47:23 10° NNW visible
29 Mar 5.9 21:42:00 10° SW 21:45:04 16° W 21:48:08 10° NW visible
30 Mar 4.8 21:03:23 10° SSW 21:07:59 34° W 21:12:36 10° NNW visible
